Regional Weather Roundup
Issued by NWS Little Rock, AR

Home | Current Version | Previous Version | Text Only | Print | Product List | Glossary Off
Versions: 1 2 3 4 5 6 7 8 9 10 11 12 13 14 15 16 17 18 19 20 21 22 23 24 25 26 27 28 29 30 31 32 33 34 35 36 37 38 39 40 41 42 43 44 45 46 47 48 49 50

000
ASUS44 KLZK 242105
RWRLZK

WEATHER ROUNDUP FOR ARKANSAS
NATIONAL WEATHER SERVICE LITTLE ROCK AR
400 PM CDT SUN MAY 24 2015

NOTE: "FAIR" INDICATES FEW OR NO CLOUDS BELOW 12,000 FEET WITH NO
SIGNIFICANT WEATHER AND/OR OBSTRUCTIONS TO VISIBILITY.

ARZ001-003-010-029-242200-
NORTHWEST ARKANSAS

CITY           SKY/WX    TMP DP  RH WIND       PRES   REMARKS
FAYETTEVILLE   HVY RAIN  63  63 100 CALM      29.92F FOG
FORT SMITH     HVY RAIN  65  63  93 NE9       29.84F FOG
HARRISON       CLOUDY    73  67  81 S7        29.91F
BENTONVILLE    CLOUDY    64  61  88 S3        29.92F
ROGERS         LGT RAIN  65  62  90 CALM      29.92F
SILOAM SPGS    CLOUDY    64  57  77 CALM      29.92F
HIGHFILL       LGT RAIN  65 N/A N/A S5        29.92F
SPRINGDALE     LGT RAIN  64  63  94 CALM      29.92F FOG
$$

ARZ004-005-016-242200-
NORTH CENTRAL ARKANSAS

CITY           SKY/WX    TMP DP  RH WIND       PRES   REMARKS
BATESVILLE     PTSUNNY   79  70  73 SE7       29.91F
FLIPPIN        CLOUDY    73  64  73 SE3       29.87F
MTN HOME       TSTM      72  68  87 VRB3      29.89F FOG
$$

ARZ040-041-242200-
WEST CENTRAL ARKANSAS

CITY           SKY/WX    TMP DP  RH WIND       PRES   REMARKS
MENA           CLOUDY    73  68  83 S10G16    29.86F
MOUNT IDA      CLOUDY    74  68  81 S12G20    29.86F
$$

ARZ009-017-025-026-028-242200-
NORTHEAST ARKANSAS

CITY           SKY/WX    TMP DP  RH WIND       PRES   REMARKS
CORNING          N/A     81  72  74 S12       29.95F
JONESBORO      PTSUNNY   83  68  60 S20G29    29.94F HX  86
NEWPORT        PTSUNNY   83  71  66 S18G30    29.93F HX  87
WALNUT RIDGE   MOSUNNY   82  70  65 S14       29.93F HX  86
BLYTHEVILLE    CLOUDY    86  68  54 S20G25    29.98F HX  89
$$

ARZ022-023-033-042-044-242200-
CENTRAL ARKANSAS

CITY           SKY/WX    TMP DP  RH WIND       PRES   REMARKS
LITTLE ROCK    CLOUDY    83  68  60 SE13      29.89F HX  86
N LITTLE ROCK  PTSUNNY   82  72  72 SE16G24   29.91S HX  86
JACKSONVILLE   CLOUDY    83  70  64 SE10G18   29.88F HX  87
SEARCY         PTSUNNY   83  71  67 S18       29.91F HX  87
HOT SPRINGS    LGT RAIN  72  69  90 S8G18     29.90F FOG
RUSSELLVILLE   RAIN      75  70  84 S9G16     29.88F
CLINTON        FAIR      77  72  83 SE5       29.90F
$$

ARZ036-242200-
EAST ARKANSAS

CITY           SKY/WX    TMP DP  RH WIND       PRES   REMARKS
WEST MEMPHIS   PTSUNNY   85  70  60 S20G25    29.96F HX  89
$$

ARZ050-053-066-070-073-242200-
SOUTHWEST ARKANSAS

CITY           SKY/WX    TMP DP  RH WIND       PRES   REMARKS
ARKADELPHIA    FAIR      74  73  96 S10       29.90F
CAMDEN         CLOUDY    73  68  83 NE7       29.92F
TEXARKANA      CLOUDY    76  69  79 S14       29.90S
EL DORADO      CLOUDY    75  70  84 SE12      29.92F
DE QUEEN       CLOUDY    74  69  85 S10G21    29.84F
$$

ARZ056-057-069-242200-
SOUTHEAST ARKANSAS

CITY           SKY/WX    TMP DP  RH WIND       PRES   REMARKS
PINE BLUFF     PTSUNNY   84  69  60 S22G32    29.92F HX  88
STUTTGART      PTSUNNY   84  70  61 S17G26    29.93S HX  88
MONTICELLO     PTSUNNY   81  74  79 S7        29.93F HX  86

$$




USA.gov is the U.S. government's official web portal to all federal, state and local government web resources and services.